User: anonymous   Login
Location: ROBOsky.com Wild Flower Ridge Observatory
(43.9736°N, 79.9739°W)
Time: 16:58:14
(UTC-04:00)
Language:

Cosmos 1190 Rocket - Orbit

View from above orbital plane
View from above orbital plane
View from above satellite
View from above satellite

Ground track
Ground track

The orbit data is extracted from the following two-line orbital elements,

1 11870U 80056B   15115.76926079  .00000290  00000-0  10715-3 0  9993
2 11870 074.0538 206.2355 0016719 349.8623 010.2190 14.36687052822296
Epoch (UTC): 25 April 2015 18:27:44
Eccentricity: 0.0016719
inclination: 74.0538°
perigee height: 757 km
apogee height: 781 km
right ascension of ascending node: 206.2355°
argument of perigee: 349.8623°
revolutions per day: 14.36687052
mean anomaly at epoch: 10.2190°
orbit number at epoch: 82229

The dashed part of the orbit path shows where the satellite is in the earth's shadow,  

DLR